STARLINK-11597, 63115

Orbit data source: Space-Track

STARLINK-11597, 63115 is a payload satellite owned by SpaceX/Seattle (US) in LEO that was launched on Thu, 27 Feb 2025 UTC via an FALCON 9 launch vehicle from the Air Force Eastern Test Range (AFETR). Payload-class satellites include a variety of spacecraft equipped with specific instruments for various scientific and technological missions. These include communications satellites like Starlink; space stations such as the ISS; scientific satellites like the Hubble; Earth observation satellites from companies like Planet Labs, Umbra, and HawkEye 360; GPS; miniature CubeSats for education and research; and military/defense satellites.

Loading next visibility...
Identifier
63115, 2025-039M
Orbit
LEO
Last TLE update
9 hours ago
Origin
Manufacturer
SpaceX/Seattle
Mission
Operational Commercial Communications
Bus & Motor
STARLINK V2M, Unknown motor
Mass
730 kg wet, ~700 kg dry
Launch date (UTC)
2025-02-27 (4 months ago)
Launch vehicle
FALCON 9
Launch site
Air Force Eastern Test Range (AFETR)
Object type
Payload
Rocket body
Debris
Shape & HBR
Box + 2 Pan, 29 m
Radar Cross Section
36.964 m², Large (>1 m²)

Expand to show TLE details & history

TLE from 9 hours ago
0 STARLINK-11597
1 63115U 25039M   25182.05767180  .00153279  00000-0  11746-2 0  9995
2 63115  42.9974 313.2983 0000828 269.8364  90.2408 15.70871245 20755
Epoch: 2025-07-01T01:23Z
TLE epoch observation values (Epoch: 2025-07-01T01:23:02.843Z)
Latitude
-0.00007°
Longitude
13.1778°
Altitude
356.179 km
Speed
7.697 km/s
True Right ascension
20h 53m 11s
True Declination
0° 00' 00"
Sunlit
Object was in full shadow at epoch
Visualization orbit readout
Latitude
16.45728°
Longitude
29.21354°
Altitude
355.384 km
Speed
7.699 km/s
Apparent Right ascension
20h 57m 36s
Apparent Declination
-53° 05' 00"
Sunlit
Object is in full shadow
Visualization observer readout
Local Sidereal Time
22:17:03
Azimuth
191.813° SSW
Elevation
-4.573°
Doppler factor
1
Orbital elements
Apogee altitude
358.946 km
Perigee altitude
357.83 km
Semi-major axis
6,736.525 km
Eccentricity
0.00008
Inclination
42.9974°
RAAN
313.2983°
Arg. of periapsis
269.8364°
True anomaly
Unknown
Mean anomaly
90.2408°
Eccentric anomaly
Unknown
Mean motion
3.92545 °/min
Orbital period
91.71 mins
BSTAR
0.0011746
Loading maneuver chart data...
Loading SW <> Apogee altitude chart data...
Loading historical data...
Loading historical data...
Loading historical data...
Loading historical data...
Loading historical data...
Loading historical data...
Loading historical data...

STARLINK-11597 Visibility forecast

Observer location: undefined°, undefined°

Span
Click to sort rows by Start time (UTC) header in descending order
Start Az.
Max El. time (UTC)
Max El. Az.
Max El.
End time (UTC)
End Az.
5 mins2025-07-01 12:16:34.439Z217.656° SW2025-07-01 12:19:34.439Z128.789° SE27.62°2025-07-01 12:21:34.439Z86.561° E
4 mins2025-07-01 13:53:34.439Z276.121° WNW2025-07-01 13:55:34.439Z30.909° NE37.03°2025-07-01 13:57:34.439Z67.093° ENE
|